TimeCDT,TemperatureF,Dew PointF,Humidity,Sea Level PressureIn,VisibilityMPH,Wind Direction,Wind SpeedMPH,Gust SpeedMPH,PrecipitationIn,Events,Conditions,WindDirDegrees,DateUTC
12:52 AM,50.0,46.0,86,30.20,7.0,NNE,10.4,-,0.06,Rain,Rain,20,2012-10-05 05:52:00
1:52 AM,50.0,46.0,86,30.21,10.0,NNE,10.4,-,0.03,,Overcast,20,2012-10-05 06:52:00
2:52 AM,51.1,46.0,83,30.21,10.0,NNE,11.5,-,0.00,,Overcast,30,2012-10-05 07:52:00
3:52 AM,51.1,46.0,83,30.19,10.0,NNE,10.4,-,N/A,,Overcast,30,2012-10-05 08:52:00
4:52 AM,51.1,46.0,83,30.19,10.0,NNE,12.7,-,0.00,,Overcast,30,2012-10-05 09:52:00
5:52 AM,51.1,45.0,80,30.19,10.0,NNE,11.5,-,0.01,,Overcast,20,2012-10-05 10:52:00
6:52 AM,50.0,45.0,83,30.19,10.0,NNE,12.7,-,N/A,,Overcast,30,2012-10-05 11:52:00
7:52 AM,50.0,45.0,83,30.20,10.0,NNE,13.8,-,N/A,,Overcast,20,2012-10-05 12:52:00
8:52 AM,51.1,45.0,80,30.20,10.0,NE,13.8,-,N/A,,Overcast,40,2012-10-05 13:52:00
9:52 AM,51.1,44.1,77,30.19,10.0,NE,12.7,-,N/A,,Overcast,40,2012-10-05 14:52:00
10:20 AM,51.8,44.6,76,30.20,10.0,NE,12.7,-,N/A,,Overcast,50,2012-10-05 15:20:00
10:36 AM,51.8,44.6,76,30.20,10.0,NE,15.0,23.0,N/A,,Overcast,40,2012-10-05 15:36:00
10:52 AM,51.1,44.1,77,30.21,10.0,NNE,16.1,20.7,N/A,,Overcast,30,2012-10-05 15:52:00
11:00 AM,51.8,44.6,76,30.21,10.0,NNE,15.0,20.7,N/A,,Overcast,30,2012-10-05 16:00:00
11:33 AM,51.8,42.8,71,30.20,10.0,NNE,12.7,-,N/A,,Overcast,30,2012-10-05 16:33:00
11:52 AM,51.1,43.0,74,30.21,10.0,NNE,16.1,-,N/A,,Overcast,30,2012-10-05 16:52:00
12:41 PM,51.8,42.8,71,30.21,10.0,NNE,16.1,-,N/A,,Overcast,20,2012-10-05 17:41:00
12:52 PM,51.1,43.0,74,30.22,10.0,NNE,18.4,23.0,N/A,,Overcast,30,2012-10-05 17:52:00
1:52 PM,52.0,43.0,71,30.22,10.0,North,13.8,-,N/A,,Overcast,10,2012-10-05 18:52:00
2:52 PM,53.1,41.0,64,30.22,10.0,NNE,17.3,26.5,N/A,,Overcast,20,2012-10-05 19:52:00
3:13 PM,53.6,41.0,62,30.21,10.0,NNE,17.3,-,N/A,,Overcast,20,2012-10-05 20:13:00
3:52 PM,54.0,37.9,55,30.22,10.0,NNE,17.3,25.3,N/A,,Overcast,20,2012-10-05 20:52:00
4:52 PM,55.0,36.0,49,30.21,10.0,NNE,18.4,26.5,N/A,,Partly Cloudy,30,2012-10-05 21:52:00
5:52 PM,53.1,36.0,52,30.22,10.0,NNE,15.0,-,N/A,,Clear,20,2012-10-05 22:52:00
6:52 PM,50.0,35.1,57,30.25,10.0,NE,9.2,-,N/A,,Clear,40,2012-10-05 23:52:00
7:52 PM,46.0,37.0,71,30.26,10.0,NE,5.8,-,N/A,,Clear,40,2012-10-06 00:52:00
8:52 PM,44.1,36.0,73,30.28,10.0,NE,3.5,-,N/A,,Clear,50,2012-10-06 01:52:00
9:52 PM,43.0,36.0,76,30.28,10.0,Calm,Calm,-,N/A,,Clear,0,2012-10-06 02:52:00
10:52 PM,39.9,37.0,89,30.31,10.0,NNW,5.8,-,N/A,,Clear,340,2012-10-06 03:52:00
11:52 PM,41.0,37.0,86,30.31,10.0,North,8.1,-,N/A,,Clear,360,2012-10-06 04:52:00